This is the latest recevied weather packets stored in our database for station/object WB5RFA. If no packets are shown the sender has not sent any weather packets the latest 10 day(s).
| Time | Temp. | Humidity | Pressure | Rain* | Wind** | Luminosity | Snow |
|---|---|---|---|---|---|---|---|
| 1777560790 | 13.33° C | 70% | 1018 hPa | 0 mm | - | - | - |
| 1777560311 | 13.33° C | 69% | 1018 hPa | 0 mm | - | - | - |
| 1777559830 | 12.78° C | 70% | 1017.8 hPa | 0 mm | - | - | - |
| 1777559351 | 12.78° C | 72% | 1017.8 hPa | 0 mm | - | - | - |
| 1777558872 | 12.78° C | 71% | 1017.8 hPa | 0 mm | - | - | - |
| 1777558391 | 12.22° C | 70% | 1017.8 hPa | 0 mm | - | - | - |
| 1777557911 | 12.78° C | 70% | 1017.9 hPa | 0 mm | - | - | - |
| 1777557432 | 12.22° C | 71% | 1017.8 hPa | 0 mm | - | - | - |
| 1777556951 | 12.22° C | 73% | 1017.8 hPa | 0 mm | - | - | - |
| 1777556472 | 11.67° C | 75% | 1017.8 hPa | 0 mm | - | - | - |
| 1777555991 | 11.11° C | 82% | 1017.8 hPa | 0 mm | - | - | - |
| 1777555511 | 10° C | 85% | 1017.7 hPa | 0 mm | - | - | - |
| 1777555030 | 9.44° C | 86% | 1017.7 hPa | 0 mm | - | - | - |
| 1777554551 | 8.89° C | 86% | 1017.7 hPa | 0 mm | - | - | - |
| 1777554071 | 8.33° C | 85% | 1017.7 hPa | 0 mm | - | - | - |
| 1777553592 | 7.78° C | 85% | 1017.7 hPa | 0 mm | - | - | - |
| 1777553112 | 7.78° C | 86% | 1017.7 hPa | 0 mm | - | - | - |
| 1777552631 | 7.22° C | 86% | 1017.7 hPa | 0 mm | - | - | - |
| 1777552150 | 6.67° C | 86% | 1017.7 hPa | 0 mm | - | - | - |
| 1777551672 | 6.67° C | 86% | 1017.6 hPa | 0 mm | - | - | - |
| 1777551191 | 6.11° C | 86% | 1017.4 hPa | 0 mm | - | - | - |
| 1777550711 | 6.11° C | 86% | 1017.4 hPa | 0 mm | - | - | - |
| 1777550232 | 6.11° C | 86% | 1017.4 hPa | 0 mm | - | - | - |
| 1777549751 | 6.11° C | 86% | 1017.3 hPa | 0 mm | - | - | - |
| 1777549271 | 6.11° C | 86% | 1017.3 hPa | 0 mm | - | - | - |
* Rain latest hour (hover to see other rain measurements)
** Current wind speed in m/s (hover to see current wind gust speed)